Regional Weather Roundup
Issued by NWS Upton, NY

Current Version | Previous Version | Graphics & Text | Print | Product List | Glossary Off
Versions: 1 2 3 4 5 6 7 8 9 10 11 12 13 14 15 16 17 18 19 20 21 22 23 24 25 26 27 28 29 30 31 32 33 34 35 36 37 38 39 40 41 42 43 44 45 46 47 48 49 50

000
ASUS41 KOKX 092305
RWROKX

REGIONAL WEATHER ROUNDUP
NATIONAL WEATHER SERVICE NEW YORK NY
700 PM EDT WED JUL 09 2014

NOTE: "FAIR" INDICATES FEW OR NO CLOUDS BELOW 12,000 FEET WITH NO
SIGNIFICANT WEATHER AND/OR OBSTRUCTIONS TO VISIBILITY.

NYZ071-072-176-178-NJZ106-104-100000-
NEW YORK CITY METRO AREA


CITY           SKY/WX    TMP DP  RH WIND       PRES   REMARKS
CENTRAL PARK   PTSUNNY   81  68  64 VRB3      29.89R
LAGUARDIA APRT PTSUNNY   82  67  60 S8        29.85R
KENNEDY INTL   PTSUNNY   75  66  73 S18       29.88R
NEWARK/LIBERTY CLOUDY    87  63  44 SW17G28   29.86R
BRNX BOT. GARD   N/A     79  68  69 SE9       29.88R
TETERBORO      PTSUNNY   87  65  47 SW12      29.84R
$$

NYZ177-179-078>081-100000-
LONG ISLAND NEW YORK

CITY           SKY/WX    TMP DP  RH WIND       PRES   REMARKS
FARMINGDALE    PTSUNNY   76  67  73 SW9       29.88R
ISLIP          PTSUNNY   77  68  73 S14       29.87S
SHIRLEY        PTSUNNY   76  68  76 S12       29.90R
WESTHAMPTON    MOSUNNY   73  66  78 S7        29.91S
MONTAUK POINT    N/A     74  67  78 S7        29.92R
$$

NYZ052-065-067-100000-
HUDSON VALLEY

CITY           SKY/WX    TMP DP  RH WIND       PRES   REMARKS
WHITE PLAINS   PTSUNNY   78  67  68 S9        29.87R
NEWBURGH       MOSUNNY   81  68  65 SW7       29.87R
MONTGOMERY     MOSUNNY   81  67  62 S6        29.84S
POUGHKEEPSIE   MOSUNNY   82  64  54 S5        29.84R
ALBANY         TSTM      67  64  90 W7        29.88R FOG
$$

NJZ001-105-106-008-010-013-015-019>022-104-100000-
NEW JERSEY

CITY           SKY/WX    TMP DP  RH WIND       PRES   REMARKS
NEWARK/LIBERTY CLOUDY    87  63  44 SW17G28   29.86R
TETERBORO      PTSUNNY   87  65  47 SW12      29.84R
CALDWELL       PTSUNNY   85  65  51 VRB7      29.87R
MORRISTOWN     PTSUNNY   84  64  51 SW14      29.87R
SOMERVILLE     CLOUDY    84  64  50 VRB5      29.86R
LINDEN         FAIR      88  64  44 W9        29.88R
SUSSEX         PTSUNNY   76  67  73 SW8       29.89R
ANDOVER          N/A     67  65  93 VRB5      29.92R
TRENTON        CLOUDY    84  65  52 SW7       29.87R
MILLVILLE      CLOUDY    81  72  74 VRB5      29.90S
ATLANTIC CITY  PTSUNNY   79  70  74 S10       29.91S
WRIGHTSTOWN    CLOUDY    83  66  57 SW9       29.86S
TOMS RIVER     PTSUNNY   82  68  61 S7        29.89S
BELMAR         PTSUNNY   84  66  54 SW6       29.88S
$$

PAZ047>061-062-071-100000-
EASTERN PENNSYLVANIA

CITY           SKY/WX    TMP DP  RH WIND       PRES   REMARKS
PHILADELPHIA   CLOUDY    85  65  51 SW13      29.89R
ALLENTOWN      PTSUNNY   78  67  68 SW7       29.89S
SCRANTON       PTSUNNY   74  59  59 N7        29.92R
$$

CTZ002-004>006-009-010-012-RIZ004-006-007-MAZ004-011-015-100000-
SOUTHERN NEW ENGLAND
 IN CT

CITY           SKY/WX    TMP DP  RH WIND       PRES   REMARKS
BRADLEY INTL   PTSUNNY   84  63  49 S13       29.84R
HARTFORD       PTSUNNY   81  66  60 S12       29.85R
DANBURY        NOT AVBL
WTRBRY/OXFORD  NOT AVBL
BRIDGEPORT     PTSUNNY   79  67  66 S12       29.87R
MERIDEN        PTSUNNY   79  67  66 S14       29.87R
NEW HAVEN      CLOUDY    79  68  69 S7        29.88R
CHESTER        FAIR      77  66  69 S8        29.90S
GROTON         MOSUNNY   72  67  84 S6        29.89R
WILLIMANTIC    MOSUNNY   80  64  58 S9        29.88R

 IN RI

CITY           SKY/WX    TMP DP  RH WIND       PRES   REMARKS
PROVIDENCE     MOSUNNY   79  64  60 S10       29.89R
BLOCK ISLAND   MOSUNNY   72  64  78 S13       29.91R
WESTERLY       SUNNY     75  66  73 SW9       29.91R

 IN MA

CITY           SKY/WX    TMP DP  RH WIND       PRES   REMARKS
BOSTON         NOT AVBL
WORCESTER      SUNNY     80  62  54 S10       29.89R
WESTFIELD      MOSUNNY   83  63  50 SW8       29.84R
PROVINCETOWN   NOT AVBL
NANTUCKET      FOG       68  66  94 S7        29.93S VSB<1/4
$$

ANZ330-335-338-340-345-350-353-355-100000-
COASTAL MARINE OBSERVATIONS


STATION/POSITION TIME  SKY/WX   TEMP    WIND        PRES    VSBY  WAVE
                                AIR SEA DIR/SP/G                  HT/PER
                 (UTC)          (F)     (DEG/KT/KT) (MB)    (MI)  (FT/S)
NY HARB ENTRANCE NOT AVBL
4S FIRE IS       2200               68                N/A           5/ 8
23SW MTP         2300            69 66              1012.1          5/ 8
HUDSON CANYON    2300            72 70  210/ 12/ 14 1013.3          5/ 7
EXECUTION ROCKS  2300            77 67  180/ 10/ 12   N/A
WESTERN LI SOUND 2300            76     170/ 12/ 14   N/A           1/ 2
CENTRAL LI SOUND 2200            75 71  200/ 10/ 14   N/A           1/ 3
EASTERN LI SOUND 2200            73 67  180/  6/  8   N/A
ROBBINS REEF     2300            77     170/ 10/ 11   N/A
$$


>>>>>>>>>>>>>>>>>>>>>>>>>>>> KEY <<<<<<<<<<<<<<<<<<<<<<<<<<<
>                                                          <
>     SKY/WX - SKY CONDITION/PRESENT WEATHER               <
>     TMP    - TEMPERATURE IN FAHRENHEIT                   <
>     DP     - DEWPOINT IN FAHRENHEIT                      <
>     RH     - RELATIVE HUMIDITY IN PERCENT                <
>     WIND   - DIRECTION AND SPEED IN MPH                  <
>     PRES   - MEAN SEA LEVEL PRESSURE IN INCHES OF HG     <
>     WCI    - WIND CHILL INDEX                            <
>     VSB    - VISIBILITY IN MILES                         <
>     HX     - HEAT INDEX                                  <
>     TC     - TEMPERATURE IN CELSIUS                      <
>     VRB    - VARIABLE WIND DIRECTION                     <
>                                                          <
>>>>>>>>>>>>>>>>>>>>>>>>>>>> KEY <<<<<<<<<<<<<<<<<<<<<<<<<<<





USA.gov is the U.S. government's official web portal to all federal, state and local government web resources and services.